Location: Briis
(48.6240°N, 2.1211°E)
Time: 01:35:25
(UTC+00:00)

ARIANE 5 R/B - Pass Details

Date: 25 September 2020
Orbit: 748 x 796 km, 98.6° (Epoch: 23 October)

Event Time Altitude Azimuth Distance (km) Brightness Sun altitude
Rises 03:22:28 0° 11° (N) 3,252 6.3 -23.2°
Reaches altitude 10° 03:24:49 10° 7° (N) 2,314 5.4 -22.9°
Maximum altitude 03:29:47 56° 291° (WNW) 904 2.6 -22.1°
Enters shadow 03:30:25 52° 261° (W) 942 2.5 -22.0°
